This is the latest recevied weather packets stored in our database for station/object KD1KE. If no packets are shown the sender has not sent any weather packets the latest 10 day(s).
| Time | Temp. | Humidity | Pressure | Rain* | Wind** | Luminosity | Snow |
|---|---|---|---|---|---|---|---|
| 1777913852 | 13.33° C | 68% | 1004.6 hPa | 0 mm | - | - | - |
| 1777913702 | 13.33° C | 68% | 1004.5 hPa | 0 mm | - | - | - |
| 1777913313 | 13.33° C | 66% | 1004.4 hPa | 0 mm | - | - | - |
| 1777913043 | 13.33° C | 64% | 1004.3 hPa | 0 mm | - | - | - |
| 1777912772 | 13.33° C | 65% | 1004.2 hPa | 0 mm | - | - | - |
| 1777912382 | 13.33° C | 65% | 1004.1 hPa | 0 mm | - | - | - |
| 1777912231 | 13.33° C | 64% | 1004 hPa | 0 mm | - | - | - |
| 1777911723 | 13.33° C | 64% | 1003.8 hPa | 0 mm | - | - | - |
| 1777911692 | 13.33° C | 63% | 1003.8 hPa | 0 mm | - | - | - |
| 1777911152 | 13.33° C | 64% | 1003.8 hPa | 0 mm | - | - | - |
| 1777911062 | 13.33° C | 63% | 1003.8 hPa | 0 mm | - | - | - |
| 1777910611 | 13.33° C | 64% | 1003.9 hPa | 0 mm | - | - | - |
| 1777910403 | 13.33° C | 62% | 1003.9 hPa | 0 mm | - | - | - |
| 1777910072 | 13.33° C | 64% | 1004.1 hPa | 0 mm | - | - | - |
| 1777909742 | 12.78° C | 64% | 1004.1 hPa | 0 mm | - | - | - |
| 1777909531 | 12.78° C | 63% | 1004.2 hPa | 0 mm | - | - | - |
| 1777909082 | 12.78° C | 63% | 1004.3 hPa | 0 mm | - | - | - |
| 1777908995 | 12.78° C | 63% | 1004.4 hPa | 0 mm | - | - | - |
| 1777908454 | 12.78° C | 62% | 1004.5 hPa | 0 mm | - | - | - |
| 1777908421 | 12.78° C | 62% | 1004.5 hPa | 0 mm | - | - | - |
| 1777907911 | 12.78° C | 59% | 1004.6 hPa | 0 mm | - | - | - |
| 1777907762 | 13.33° C | 58% | 1004.7 hPa | 0 mm | - | - | - |
| 1777907371 | 13.33° C | 59% | 1004.8 hPa | 0 mm | - | - | - |
| 1777907101 | 13.33° C | 60% | 1004.8 hPa | 0 mm | - | - | - |
| 1777906830 | 12.78° C | 58% | 1004.9 hPa | 0 mm | - | - | - |
* Rain latest hour (hover to see other rain measurements)
** Current wind speed in m/s (hover to see current wind gust speed)